Location: Warszawa
(52.2500°N, 21.0000°E)
Time: 13:36:57
(UTC+02:00)

Vanguard 2 - Pass Details

Date: 12 February 2023
Orbit: 553 x 2927 km, 32.9° (Epoch: 27 March)

Event Time Altitude Azimuth Distance (km) Brightness Sun altitude
Rises 22:16:20 0° 254° (WSW) 5,053 11.9 -47.0°
Reaches altitude 10° 22:19:49 10° 244° (WSW) 4,386 11.4 -47.3°
Enters shadow 22:21:50 16° 237° (WSW) 4,084 11.1 -47.5°
Maximum altitude 22:30:13 30° 190° (S) 3,747 - -48.1°
Drops below altitude 10° 22:43:42 10° 138° (SE) 5,704 - -49.1°
Sets 22:49:07 0° 130° (SE) 6,776 - -49.4°
